Powrót do katalogu

CZ-6A DEB

AktywnySSO
NORAD 56261·DEBRIS·🇨🇳 China

Wystrzelony Nov 11, 2022 z Taiyuan Satellite Launch Center

Loading…

Następne Przeloty (najbliższe 24 godziny)

TLE

ŚwieżeSource: Space-Track

Epoka: Sep 14, 2026, 01:16 UTC

1 56261U 22151ACD 26257.05313228  .00005050  00000-0  17650-2 0  9998
2 56261  98.7981 280.3836 0038225  32.4695 327.8830 14.35237081184742

Śledź CZ-6A DEB w czasie rzeczywistym z AllMySat

Download on the App Store